Tracking 27420 objects as of 28-May-2023
HD Live streaming from Space Station
objects crossing your sky now

STARLINK-3646

Track STARLINK-3646 now!
10-day predictions
STARLINK-3646 is classified as:


NORAD ID: 51785
Int'l Code: 2022-017T
Perigee: 546.1 km
Apogee: 547.6 km
Inclination: 53.2 °
Period: 95.4 minutes
Semi major axis: 6917 km
RCS: Unknown
Launch date: February 25, 2022
Source: United States (US)
Launch site: AIR FORCE WESTERN TEST RANGE (AFWTR)
Your satellite tracking list
Your tracking list is empty




NASA's NSSDC Master Catalog

Two Line Element Set (TLE):
1 51785U 22017T   23148.52022553  .00001171  00000-0  91639-4 0  9992
2 51785  53.2158 220.8807 0001078  87.2333 272.8782 15.08843558 70708
Source of the keplerian elements: AFSPC